Погода в Дугне

Россия / Калужская область     54°25′18″N   36°51′22″E
темп.,
°C
ветер,
м/с
пор.,
м/с
влажн.,
%
обл.,
%
осадки,
мм/ч
давл.,
гПа
погр.,
м
7 августа, вс
вс700:00+20ю336822 0.0 101842
03:00+18ююв23764 0.1 101826
06:00+18ю35805 0.1 101884
09:00+24ююз465945 0.3 1018335
12:00+28ю563688 0.0 10181977
15:00+29ююз5632100 0.0 10162716
18:00+27ю255193 0.0 1016136
21:00+18с4994100 0.6 1018265
8 августа, пн
пн800:00+17вюв1198100 2.0 102020
03:00+16св2597100 2.4 1019116
06:00+17с229680 0.0 102074
09:00+20св228266 0.0 1020369
12:00+25св225821 0.0 10201230
15:00+26ссв125748 3.1 1019905
18:00+22ссз467561 2.5 1019167
21:00+17с5998100 10.9 1020242
9 августа, вт
вт900:00+17ссв2499100 6.6 1020172
03:00+16ссз2399100 7.4 1019136
06:00+17сз2296100 0.0 1020171
09:00+18с3491100 0.1 1020390
12:00+18с3493100 0.3 1020347
15:00+17с5796100 1.6 1020304
18:00+19с3584100 0.3 1020593
21:00+16с3492100 0.3 102168
10 августа, ср
ср1000:00+15с3592100 0.0 102195
03:00+14с3494100 0.0 102188
06:00+14с2593100 0.0 1021156
09:00+17с2477100 0.0 1021339
12:00+21ссз345360 0.0 10211408
15:00+22сз4447100 0.0 10202139
18:00+19с476518 0.0 1021592
21:00+14ссз398213 0.0 1022158
11 августа, чт
чт1100:00+11с38920 0.0 1023150
03:00+10с37940 0.0 1023122
06:00+11с26940 0.0 1025131
09:00+17ссв46670 0.0 1025539
12:00+21ссв45490 0.0 10241521
15:00+23св34430 0.0 10241790
18:00+22св23550 0.0 1023254
21:00+16всв11670 0.0 102411